Simultaneous Nadir Overpasses (SNOs) Predictions

Prediction of SNOs between GOES-14 and NPP Satellite Orbit:

Table of predicted SNOs for the next 14.0 days since TLE Epoch: 1/20/2024
Index Date Time (GOES-14) GOES-14 Lat,Lon NPP Lat,Lon Distance(km) Time Diff (sec)
1 01/20/2024 08:31:04 -0.05,-108.55 -0.45,-106.82 197.64 80
2 01/21/2024 20:53:01 0.05,-108.54 -0.76,-112.12 407.55 80
3 01/22/2024 20:36:56 0.04,-108.54 0.25,-107.59 108.38 80
4 01/24/2024 08:58:45 -0.03,-108.53 0.91,-112.86 492.78 80
5 01/25/2024 08:37:20 -0.03,-108.53 -0.10,-108.33 23.35 80
6 01/27/2024 20:43:11 0.02,-108.52 -0.13,-109.09 65.64 80
7 01/28/2024 20:24:26 0.03,-108.52 0.89,-104.56 450.65 80
8 01/30/2024 08:46:15 -0.03,-108.52 0.26,-109.84 150.01 80
9 01/31/2024 08:24:50 -0.03,-108.52 -0.76,-105.31 366.15 80
10 02/01/2024 20:46:46 0.02,-108.51 -0.47,-110.60 238.65 80
11 02/02/2024 20:30:41 0.02,-108.51 0.56,-106.07 277.56 80
